Weather History for PHOG - January, 2013

Change the Weather History Date:

Wednesday, January 30, 2013

  Actual Average Record
Temperature  
Mean Temperature 73 °F 72 °F  
Max Temperature 79 °F 81 °F 88 °F (1953)
Min Temperature 67 °F 63 °F 56 °F (2000)
Degree Days  
Heating Degree Days 0 0  
Month to date heating degree days 0 0  
Since 1 July heating degree days 0 0  
Cooling Degree Days 8 7  
Month to date cooling degree days 223 210  
Year to date cooling degree days 223 210  
Growing Degree Days 22 (Base 50)    
Moisture  
Dew Point 66 °F    
Average Humidity 77    
Maximum Humidity 87    
Minimum Humidity 67    
Precipitation  
Precipitation T in 0.08 in 1.33 in (1974)
Month to date precipitation 1.32 2.78  
Year to date precipitation 1.32 2.78  
Snow  
Snow 0.00 in - - ()
Month to date snowfall 0.0  
Since 1 July snowfall 0.0  
Snow Depth 0.00 in    
Sea Level Pressure  
Sea Level Pressure 30.06 in    
Wind  
Wind Speed 6 mph (North)    
Max Wind Speed 13 mph    
Max Gust Speed 16 mph    
Visibility 10 miles    
Events Rain    
T = Trace of Precipitation, MM = Missing Value Source: NWS Daily Summary

Daily Weather History Graph

Daily Weather History Graph

Search for Another Location

Airport or City:

Trip Planner

Search our weather history database for the weather conditions in past years. The results will help you decide how hot, cold, wet, or windy it might be!

Date:

Astronomy

Jan. 30, 2013 Rise Set
Actual Time 7:02 AM HST 6:15 PM HST
Civil Twilight 6:39 AM HST 6:38 PM HST
Nautical Twilight 6:13 AM HST 7:05 PM HST
Astronomical Twilight 5:46 AM HST 7:31 PM HST
Moon 9:45 PM HST (1/30) 9:12 AM HST (1/30)
Length of Visible Light 11h 58m
Length of Day
11h 12m
Waning Gibbous, 86% of the Moon is Illuminated
Jan 30
Waning Gibbous
Feb 3
Last Quarter
Feb 9
New
Feb 17
First Quarter
Feb 25
Full

Hourly Weather History & Observations

Time (HST) Temp. Dew Point Humidity Pressure Visibility Wind Dir Wind Speed Gust Speed Precip Events Conditions
12:54 AM 70.0 °F 63.0 °F 78% 30.03 in 10.0 mi WNW 5.8 mph - 0.00 in Rain Light Rain
1:54 AM 70.0 °F 64.9 °F 84% 30.02 in 10.0 mi NNW 3.5 mph - 0.00 in   Overcast
2:54 AM 72.0 °F 64.9 °F 78% 30.02 in 10.0 mi North 6.9 mph - N/A   Overcast
3:54 AM 68.0 °F 64.0 °F 87% 30.02 in 10.0 mi SSW 3.5 mph - N/A   Overcast
4:54 AM 68.0 °F 64.0 °F 87% 30.03 in 10.0 mi SW 3.5 mph - N/A   Overcast
5:54 AM 68.0 °F 64.9 °F 90% 30.04 in 10.0 mi South 3.5 mph - N/A   Overcast
6:54 AM 68.0 °F 64.9 °F 90% 30.05 in 10.0 mi SE 5.8 mph - N/A   Mostly Cloudy
7:54 AM 68.0 °F 64.9 °F 90% 30.07 in 10.0 mi Calm Calm - N/A   Overcast
8:54 AM 71.1 °F 64.9 °F 81% 30.08 in 10.0 mi Calm Calm - N/A   Mostly Cloudy
9:54 AM 75.0 °F 66.9 °F 76% 30.10 in 10.0 mi Calm Calm - N/A   Mostly Cloudy
10:54 AM 77.0 °F 66.9 °F 71% 30.09 in 10.0 mi NNW 5.8 mph - N/A   Scattered Clouds
11:54 AM 77.0 °F 66.9 °F 71% 30.08 in 10.0 mi NNW 6.9 mph - N/A   Mostly Cloudy
12:54 PM 78.1 °F 66.9 °F 68% 30.06 in 10.0 mi North 10.4 mph - N/A   Mostly Cloudy
1:54 PM 77.0 °F 66.9 °F 71% 30.04 in 10.0 mi North 9.2 mph - N/A   Mostly Cloudy
2:54 PM 77.0 °F 66.0 °F 69% 30.03 in 10.0 mi North 9.2 mph - N/A   Mostly Cloudy
3:54 PM 75.9 °F 66.0 °F 71% 30.03 in 10.0 mi North 8.1 mph - 0.00 in   Mostly Cloudy
4:54 PM 75.0 °F 66.9 °F 76% 30.04 in 10.0 mi North 9.2 mph - N/A   Mostly Cloudy
5:54 PM 73.9 °F 66.0 °F 76% 30.05 in 10.0 mi NNE 9.2 mph - N/A   Mostly Cloudy
6:54 PM 73.9 °F 66.9 °F 79% 30.06 in 10.0 mi NNE 6.9 mph - N/A   Scattered Clouds
7:54 PM 73.9 °F 66.9 °F 79% 30.07 in 10.0 mi NE 9.2 mph - N/A   Scattered Clouds
8:54 PM 73.0 °F 66.9 °F 81% 30.09 in 10.0 mi NNE 8.1 mph - N/A   Scattered Clouds
9:54 PM 73.0 °F 66.0 °F 79% 30.10 in 10.0 mi NE 10.4 mph - N/A   Scattered Clouds
10:54 PM 73.0 °F 66.9 °F 81% 30.09 in 10.0 mi NNE 9.2 mph - N/A   Scattered Clouds
11:54 PM 73.0 °F 66.9 °F 81% 30.08 in 10.0 mi NNE 9.2 mph - N/A   Mostly Cloudy